| time (UTC) | temp F | wind direction | speed MPH | gust MPH | rain 1hr in | rain 24hr in | rain mn in | humidity % | barometer mb |
| 20260906120017 | 56 | 0.0 | 1.0 | 0.00 | 0.00 | 0.00 | 88 | 1016.0 | |
| 20260906113016 | 56 | 0.0 | 0.0 | 0.00 | 0.00 | 0.00 | 86 | 1016.0 | |
| 20260906110016 | 56 | 0.0 | 0.0 | 0.00 | 0.00 | 0.00 | 85 | 1015.9 | |
| 20260906103021 | 57 | 0.0 | 0.0 | 0.00 | 0.00 | 0.00 | 84 | 1015.7 | |
| 20260906100016 | 57 | 0.0 | 1.0 | 0.00 | 0.00 | 0.00 | 82 | 1015.8 | |
| 20260906093015 | 58 | 0.0 | 1.0 | 0.00 | 0.00 | 0.00 | 79 | 1015.7 | |
| 20260906090018 | 59 | 0.0 | 2.0 | 0.00 | 0.00 | 0.00 | 78 | 1015.7 | |
| 20260906083018 | 59 | 0.0 | 2.0 | 0.00 | 0.00 | 0.00 | 78 | 1015.9 | |
| 20260906080022 | 59 | 0.0 | 0.0 | 0.00 | 0.00 | 0.00 | 75 | 1015.9 | |
| 20260906073017 | 60 | 0.0 | 1.0 | 0.00 | 0.00 | 0.00 | 73 | 1016.0 | |
| 20260906070017 | 59 | 0.0 | 0.0 | 0.00 | 0.00 | 0.00 | 76 | 1016.1 | |
| 20260906063021 | 59 | 0.0 | 0.0 | 0.00 | 0.00 | 0.00 | 77 | 1016.1 | |
| 20260906060021 | 59 | 0.0 | 0.0 | 0.00 | 0.00 | 0.00 | 76 | 1016.1 | |
| 20260906053017 | 60 | 0.0 | 0.0 | 0.00 | 0.00 | 0.00 | 74 | 1016.3 | |
| 20260906050016 | 61 | 0.0 | 0.0 | 0.00 | 0.00 | 0.00 | 72 | 1016.3 | |
| 20260906043016 | 61 | 0.0 | 0.0 | 0.00 | 0.00 | 0.00 | 70 | 1016.5 | |
| 20260906040021 | 62 | 0.0 | 0.0 | 0.00 | 0.00 | 0.00 | 67 | 1016.5 | |
| 20260906033021 | 63 | 0.0 | 0.0 | 0.00 | 0.00 | 0.00 | 65 | 1016.4 | |
| 20260906030016 | 64 | 0.0 | 0.0 | 0.00 | 0.00 | 0.00 | 60 | 1016.2 | |
| 20260906023017 | 66 | 0.0 | 1.0 | 0.00 | 0.00 | 0.00 | 57 | 1016.1 | |
| 20260906020020 | 71 | 0.0 | 0.0 | 0.00 | 0.00 | 0.00 | 55 | 1016.1 | |
| 20260906013021 | 71 | 0.0 | 1.0 | 0.00 | 0.00 | 0.00 | 56 | 1016.1 | |
| 20260906010020 | 70 | 0.0 | 2.0 | 0.00 | 0.00 | 0.00 | 59 | 1016.0 | |
| 20260906003018 | 69 | 0.0 | 1.0 | 0.00 | 0.00 | 0.00 | 59 | 1015.8 | |
| 20260906000018 | 67 | 0.0 | 3.0 | 0.00 | 0.00 | 0.00 | 65 | 1015.7 | |
| 20260905233017 | 67 | 0.0 | 3.0 | 0.00 | 0.00 | 0.00 | 64 | 1016.1 | |
| 20260905230018 | 66 | 0.0 | 3.0 | 0.00 | 0.00 | 0.00 | 67 | 1016.2 | |
| 20260905223022 | 66 | 0.0 | 2.0 | 0.00 | 0.00 | 0.00 | 69 | 1016.5 | |
| 20260905220022 | 67 | 0.0 | 3.0 | 0.00 | 0.00 | 0.00 | 65 | 1016.7 | |
| 20260905213017 | 66 | 0.0 | 3.0 | 0.00 | 0.00 | 0.00 | 68 | 1016.9 | |
| 20260905210017 | 65 | 0.0 | 3.0 | 0.00 | 0.00 | 0.00 | 71 | 1017.1 | |
| 20260905203022 | 65 | 0.0 | 3.0 | 0.00 | 0.00 | 0.00 | 71 | 1017.1 | |
| 20260905200022 | 65 | 0.0 | 5.0 | 0.00 | 0.00 | 0.00 | 69 | 1017.2 | |
| 20260905193017 | 64 | 0.0 | 3.0 | 0.00 | 0.00 | 0.00 | 68 | 1017.5 | |
| 20260905190022 | 63 | 0.0 | 4.0 | 0.00 | 0.00 | 0.00 | 71 | 1017.4 | |
| 20260905183017 | 62 | 0.0 | 3.0 | 0.00 | 0.00 | 0.00 | 77 | 1017.6 | |
| 20260905180017 | 60 | 0.0 | 1.0 | 0.00 | 0.00 | 0.00 | 75 | 1017.9 | |
| 20260905173021 | 60 | 0.0 | 1.0 | 0.00 | 0.00 | 0.00 | 76 | 1017.8 | |
| 20260905170021 | 58 | 0.0 | 1.0 | 0.00 | 0.00 | 0.00 | 80 | 1017.6 | |
| 20260905163024 | 58 | 0.0 | 1.0 | 0.00 | 0.00 | 0.00 | 81 | 1017.6 | |
| 20260905160016 | 57 | 0.0 | 1.0 | 0.00 | 0.00 | 0.00 | 84 | 1017.6 | |
| 20260905153021 | 55 | 0.0 | 1.0 | 0.00 | 0.00 | 0.00 | 89 | 1017.7 | |
| 20260905150021 | 53 | 0.0 | 0.0 | 0.00 | 0.00 | 0.00 | 94 | 1017.5 | |
| 20260905143021 | 52 | 0.0 | 0.0 | 0.00 | 0.00 | 0.00 | 94 | 1017.2 | |
| 20260905140021 | 52 | 0.0 | 0.0 | 0.00 | 0.00 | 0.00 | 94 | 1016.9 | |
| 20260905133021 | 51 | 0.0 | 0.0 | 0.00 | 0.00 | 0.00 | 94 | 1016.9 | |
| 20260905130021 | 51 | 0.0 | 0.0 | 0.00 | 0.00 | 0.00 | 93 | 1016.9 | |
| 20260905123021 | 51 | 0.0 | 0.0 | 0.00 | 0.00 | 0.00 | 93 | 1016.8 |